Location: Limerick
(52.6800°N, 8.6400°W)
Time: 13:00:57
(UTC+01:00)

Sapphire - Visible Passes

Search period start: 24 October 2014 00:00
Search period end: 02 November 2014 23:00
Orbit: 786 x 797 km, 67.1° (Epoch: 23 October)

Date Brightness Start Highest point End Pass type
(mag) Time Alt. Az. Time Alt. Az. Time Alt. Az.
24 Oct ? 04:18:02 18° ESE 04:18:40 18° ESE 04:22:16 10° ENE visible
24 Oct ? 05:58:49 33° SSW 06:01:21 85° SE 06:06:50 10° NE visible
24 Oct ? 07:40:39 10° W 07:45:25 30° NNW 07:50:12 10° NNE visible
25 Oct ? 03:49:00 14° E 03:49:00 14° E 03:51:05 10° ENE visible
25 Oct ? 05:29:47 53° S 05:30:55 68° ESE 05:36:20 10° NE visible
25 Oct ? 07:10:34 14° W 07:14:46 35° NW 07:19:45 10° NNE visible
26 Oct ? 04:00:39 53° ESE 04:00:39 53° ESE 04:05:48 10° NE visible
26 Oct ? 05:41:25 24° W 05:44:09 41° NW 05:49:18 10° NNE visible
27 Oct ? 03:31:25 36° E 03:31:25 36° E 03:35:14 10° NE visible
27 Oct ? 05:12:11 40° W 05:13:33 49° NW 05:18:51 10° NNE visible
28 Oct ? 03:02:08 23° ENE 03:02:08 23° ENE 03:04:36 10° NE visible
28 Oct ? 04:42:54 59° NW 04:43:00 59° NW 04:48:24 10° NE visible
28 Oct ? 06:23:39 12° WNW 06:27:31 23° NNW 06:31:49 10° NNE visible
29 Oct ? 02:32:47 15° ENE 02:32:47 15° ENE 02:33:53 10° ENE visible
29 Oct ? 04:13:32 56° NNE 04:13:32 56° NNE 04:17:56 10° NE visible
29 Oct ? 05:54:18 19° WNW 05:56:48 26° NNW 06:01:19 10° NNE visible
30 Oct ? 03:44:08 38° NE 03:44:08 38° NE 03:47:28 10° NE visible
30 Oct ? 05:24:54 26° NW 05:26:07 29° NNW 05:30:50 10° NNE visible
31 Oct ? 03:14:42 26° NE 03:14:42 26° NE 03:16:58 10° NE visible
31 Oct ? 04:55:27 33° NNW 04:55:27 33° NNW 05:00:22 10° NNE visible
31 Oct ? 06:36:46 10° NW 06:40:31 18° N 06:44:16 10° NE visible
01 Nov ? 02:45:13 17° NE 02:45:13 17° NE 02:46:27 10° NE visible
01 Nov ? 04:25:58 35° N 04:25:58 35° N 04:29:55 10° NNE visible
01 Nov ? 06:06:43 13° NW 06:09:44 19° NNW 06:13:37 10° NE visible
02 Nov ? 02:15:42 11° NE 02:15:42 11° NE 02:15:53 10° NE visible
02 Nov ? 03:56:27 30° NNE 03:56:27 30° NNE 03:59:28 10° NNE visible
02 Nov ? 05:37:12 18° NW 05:38:58 21° NNW 05:43:01 10° NNE visible
